Location: Bothwell
(41.7170°N, 112.2589°W)
Time: 01:41:46
(UTC+00:00)

STARLINK-37354 - Pass Details

Date: 19 April 2026
Orbit: 261 x 262 km, 97.3° (Epoch: 18 April)

Event Time Altitude Azimuth Distance (km) Brightness Sun altitude
Rises 04:04:37 0° 12° (NNE) 1,892 5.7 -19.4°
Reaches altitude 10° 04:06:26 10° 13° (NNE) 1,078 4.4 -19.7°
Enters shadow 04:06:31 11° 13° (NNE) 1,046 4.3 -19.7°
